Regional Weather Roundup
Issued by NWS

Home | Current Version | Previous Version | Graphics & Text | Print | Product List | Glossary On
Versions: 1 2 3 4 5 6 7 8 9 10 11 12 13 14 15 16 17 18 19 20 21 22 23 24 25 26 27 28 29 30 31 32 33 34 35 36 37 38 39 40 41 42 43 44 45 46 47 48 49 50
000
ASUS45 KABQ 200110
RWRNM
WEATHER ROUNDUP FOR NEW MEXICO
NATIONAL WEATHER SERVICE ALBUQUERQUE NM
700 PM MDT FRI SEP 19 2014

NOTE: "FAIR" MEANS FEW OR NO CLOUDS BELOW 12,000 FEET AGL WITH NO
       SIGNIFICANT WEATHER OR OBSTRUCTIONS TO VISION.

      THIS PRODUCT IS RELEASED AS TWO VERSIONS.  ONE VERSION NEAR
      THE TOP OF THE HOUR CONTAINING PRELIMINARY DATA FROM ALBUQUERQUE
      AND OTHER STATIONS.  A FINAL VERSION WITH ADDITIONAL DATA IS
      ISSUED ABOUT 10 MINUTES AFTER THE HOUR.

NMZ501-503-504-510>518-200200-
NORTHWEST PLATEAU/NORTHCENTRAL MOUNTAINS

CITY           SKY/WX    TMP DP  RH WIND       PRES   REMARKS
FARMINGTON     CLEAR     83  41  22 W15       29.99R
LOS ALAMOS     PTCLDY    73  46  37 S10G16    30.15R
SANTA FE       PTCLDY    75  51  43 S12       30.08S
TAOS           MOCLDY    75  39  27 SW12      30.11R
ANGEL FIRE     FAIR      60  45  57 CALM      30.24R

$$
NMZ402-403-502-505>509-200200-
WESTCENTRAL MOUNTAINS/SOUTHWEST MOUNTAINS

CITY           SKY/WX    TMP DP  RH WIND       PRES   REMARKS
GALLUP         PTCLDY    78  40  25 N7        30.09S
GRANTS         PTCLDY    75  45  33 SE6       30.11R
SILVER CITY    PTCLDY    75  61  60 S8        30.07R

$$
NMZ407-409-411-412-200200-
SOUTHERN DESERTS

CITY           SKY/WX    TMP DP  RH WIND       PRES   REMARKS
LORDSBURG      FAIR      79  61  53 MISG      29.97R
DEMING         CLEAR     80  60  50 CALM      29.97R
LAS CRUCES     CLEAR     79  60  51 CALM      29.99R
HOLLOMAN AFB   CLEAR     77  64  62 N1        29.95S
ALAMOGORDO     CLEAR     75  63  64 CALM      29.97S
T OR C         CLEAR     79  58  48 NE5       29.99R

$$
NMZ519>523-200200-
CENTRAL VALLEYS/CENTRAL HIGHLANDS

CITY           SKY/WX    TMP DP  RH WIND       PRES   REMARKS
ALBUQUERQUE    PTCLDY    79  55  43 SW12      30.03R
DOUBLE EAGLE   PTCLDY    77  55  47 S13       30.06R
MORIARTY ARPT  CLOUDY    69  56  64 S9        30.12S
CLINES CORNERS CLOUDY    65  56  72 S9        30.16R
BELEN          FAIR      76  56  51 S7        30.02S
SOCORRO        FAIR      78  59  52 CALM      30.00S

$$
NMZ524>526-539-540-200200-
SOUTHCENTRAL MOUNTAINS

CITY           SKY/WX    TMP DP  RH WIND       PRES   REMARKS
RUIDOSO        NOT AVBL

$$
NMZ527>531-200200-
NORTHEAST HIGHLANDS/NORTHEAST PLAINS

CITY           SKY/WX    TMP DP  RH WIND       PRES   REMARKS
LAS VEGAS      PTCLDY    66  55  67 S14       30.15R
RATON          CLEAR     71  53  52 S14       30.07R
CLAYTON        CLEAR     69  60  73 S18       30.03R

$$
NMZ532>537-200200-
EASTCENTRAL PLAINS

CITY           SKY/WX    TMP DP  RH WIND       PRES   REMARKS
TUCUMCARI      PTCLDY    74  59  59 S8        29.99R
CANNON AFB     PTCLDY    70  65  84 SE12      30.03S
CLOVIS AIRPORT   N/A     68  63  83 SE9       30.05S

$$
NMZ028-029-538-200200-
SOUTHEAST PLAINS

CITY           SKY/WX    TMP DP  RH WIND       PRES   REMARKS
ROSWELL        MOCLDY    71  66  84 E7        29.98R
CARLSBAD       LGT RAIN  72  32  23 NE7       29.95R
HOBBS          CLOUDY    66  66 100 E9        30.00R


$$


USA.gov is the U.S. government's official web portal to all federal, state and local government web resources and services.